TimeGMT,TemperatureF,Dew PointF,Humidity,Sea Level PressureIn,VisibilityMPH,Wind Direction,Wind SpeedMPH,Gust SpeedMPH,PrecipitationIn,Events,Conditions,WindDirDegrees,DateUTC
12:20 AM,32.0,26.6,80,30.12,6.2,East,4.6,-,N/A,,Partly Cloudy,90,2013-03-28 00:20:00
12:50 AM,32.0,26.6,80,30.12,5.0,ENE,3.5,-,N/A,Snow,Light Snow Showers,70,2013-03-28 00:50:00
1:20 AM,33.8,28.4,81,30.12,5.0,ENE,10.4,-,N/A,Snow,Light Snow,70,2013-03-28 01:20:00
1:50 AM,32.0,30.2,93,30.12,-9999.0,ENE,10.4,-,N/A,Snow,Light Snow,60,2013-03-28 01:50:00
2:20 AM,32.0,30.2,93,30.09,4.3,NE,9.2,-,N/A,Snow,Light Snow,50,2013-03-28 02:20:00
2:50 AM,32.0,30.2,93,30.09,3.1,ENE,10.4,-,N/A,Snow,Light Snow,60,2013-03-28 02:50:00
3:20 AM,32.0,30.2,93,30.09,1.0,ENE,8.1,-,N/A,Rain,Rain,60,2013-03-28 03:20:00
3:50 AM,32.0,30.2,93,30.09,4.3,ENE,10.4,-,N/A,Rain,Rain,60,2013-03-28 03:50:00
4:20 AM,32.0,30.2,93,30.09,1.6,NE,8.1,-,N/A,Rain,Rain,50,2013-03-28 04:20:00
4:50 AM,32.0,30.2,93,30.09,5.0,NE,8.1,-,N/A,Rain,Rain,50,2013-03-28 04:50:00
5:20 AM,30.2,28.4,93,30.09,6.2,NE,6.9,-,N/A,,Mostly Cloudy,50,2013-03-28 05:20:00
5:50 AM,32.0,30.2,93,30.09,6.2,NE,5.8,-,N/A,,Mostly Cloudy,50,2013-03-28 05:50:00
6:20 AM,32.0,30.2,93,30.09,-9999.0,ENE,5.8,-,N/A,Snow,Light Snow Showers,70,2013-03-28 06:20:00
6:50 AM,32.0,30.2,93,30.09,6.2,East,6.9,-,N/A,Snow,Light Snow Showers,90,2013-03-28 06:50:00
7:20 AM,32.0,30.2,93,30.09,6.2,NE,9.2,-,N/A,,Mostly Cloudy,50,2013-03-28 07:20:00
7:50 AM,32.0,30.2,93,30.09,6.2,ENE,10.4,-,N/A,,Overcast,60,2013-03-28 07:50:00
8:20 AM,32.0,30.2,93,30.09,6.2,ENE,11.5,-,N/A,,Mostly Cloudy,60,2013-03-28 08:20:00
8:50 AM,33.8,30.2,87,30.09,6.2,ENE,6.9,-,N/A,,Mostly Cloudy,60,2013-03-28 08:50:00
9:20 AM,33.8,30.2,87,30.09,6.2,ENE,10.4,-,N/A,,Mostly Cloudy,60,2013-03-28 09:20:00
9:50 AM,35.6,30.2,81,30.09,6.2,ENE,8.1,-,N/A,,Mostly Cloudy,70,2013-03-28 09:50:00
10:20 AM,35.6,30.2,81,30.09,6.2,ENE,9.2,-,N/A,,Mostly Cloudy,60,2013-03-28 10:20:00
10:50 AM,37.4,26.6,65,30.09,6.2,East,15.0,-,N/A,,Mostly Cloudy,100,2013-03-28 10:50:00
11:20 AM,39.2,26.6,61,30.09,6.2,East,16.1,-,N/A,,Scattered Clouds,100,2013-03-28 11:20:00
11:50 AM,39.2,26.6,61,30.09,6.2,East,15.0,-,N/A,,Mostly Cloudy,100,2013-03-28 11:50:00
12:20 PM,39.2,26.6,61,30.09,6.2,East,16.1,-,N/A,,Mostly Cloudy,90,2013-03-28 12:20:00
12:50 PM,39.2,24.8,56,30.09,6.2,East,16.1,-,N/A,,Mostly Cloudy,80,2013-03-28 12:50:00
1:20 PM,41.0,26.6,57,30.09,6.2,ESE,15.0,-,N/A,,Mostly Cloudy,110,2013-03-28 13:20:00
1:50 PM,41.0,24.8,53,30.09,6.2,ENE,16.1,-,N/A,,Mostly Cloudy,70,2013-03-28 13:50:00
2:20 PM,41.0,23.0,49,30.09,6.2,East,16.1,-,N/A,,Scattered Clouds,90,2013-03-28 14:20:00
2:50 PM,41.0,23.0,49,30.06,6.2,East,16.1,-,N/A,,Mostly Cloudy,100,2013-03-28 14:50:00
3:20 PM,41.0,23.0,49,30.06,6.2,ESE,19.6,-,N/A,,Partly Cloudy,110,2013-03-28 15:20:00
3:50 PM,41.0,23.0,49,30.06,-9999.0,ESE,16.1,-,N/A,,Clear,120,2013-03-28 15:50:00
4:20 PM,42.8,23.0,46,30.06,6.2,East,12.7,-,N/A,,Scattered Clouds,90,2013-03-28 16:20:00
4:50 PM,39.2,23.0,52,30.06,6.2,ENE,12.7,-,N/A,,Scattered Clouds,70,2013-03-28 16:50:00
5:20 PM,39.2,24.8,56,30.06,6.2,ENE,13.8,-,N/A,,Scattered Clouds,60,2013-03-28 17:20:00
5:50 PM,37.4,24.8,60,30.06,6.2,ENE,8.1,-,N/A,,Scattered Clouds,60,2013-03-28 17:50:00
6:20 PM,37.4,23.0,56,30.09,6.2,ENE,12.7,-,N/A,,Scattered Clouds,70,2013-03-28 18:20:00
6:50 PM,35.6,23.0,60,30.09,6.2,ENE,9.2,-,N/A,,Scattered Clouds,70,2013-03-28 18:50:00
7:20 PM,35.6,23.0,60,30.09,6.2,ENE,9.2,-,N/A,,Partly Cloudy,70,2013-03-28 19:20:00
7:50 PM,33.8,24.8,70,30.09,-9999.0,ENE,9.2,-,N/A,,Clear,70,2013-03-28 19:50:00
8:20 PM,32.0,23.0,69,30.09,-9999.0,ENE,8.1,-,N/A,,Clear,60,2013-03-28 20:20:00
8:50 PM,30.2,23.0,75,30.06,-9999.0,ENE,5.8,-,N/A,,Clear,60,2013-03-28 20:50:00
9:20 PM,32.0,24.8,75,30.06,-9999.0,ENE,6.9,-,N/A,,Clear,70,2013-03-28 21:20:00
9:50 PM,30.2,23.0,75,30.06,-9999.0,ENE,6.9,-,N/A,,Clear,60,2013-03-28 21:50:00
10:20 PM,30.2,24.8,80,30.06,6.2,East,5.8,-,N/A,,Scattered Clouds,80,2013-03-28 22:20:00
10:50 PM,32.0,26.6,80,30.06,6.2,East,5.8,-,N/A,,Mostly Cloudy,80,2013-03-28 22:50:00
11:20 PM,32.0,26.6,80,30.06,6.2,East,6.9,-,N/A,,Mostly Cloudy,100,2013-03-28 23:20:00
11:50 PM,32.0,26.6,80,30.06,6.2,East,4.6,-,N/A,,Mostly Cloudy,90,2013-03-28 23:50:00